Weather History for Jamestown, NY

Change the Weather History Date:

Sunday, February 2, 2014

  Actual Average Record
Temperature  
Mean Temperature 29 °F -  
Max Temperature 39 °F 32 °F 58 °F (1989)
Min Temperature 19 °F 14 °F -23 °F (1961)
Degree Days  
Heating Degree Days 36    
Moisture  
Dew Point 25 °F    
Average Humidity 92    
Maximum Humidity 100    
Minimum Humidity 80    
Precipitation  
Precipitation 0.05 in - - ()
Sea Level Pressure  
Sea Level Pressure 29.99 in    
Wind  
Wind Speed 7 mph (WNW)    
Max Wind Speed 12 mph    
Max Gust Speed -    
Visibility 6 miles    
Events      
Averages and records for this station are not official NWS values.
T = Trace of Precipitation, MM = Missing Value Source: NWS Daily Summary

Daily Weather History Graph

Daily Weather History Graph

Search for Another Location

Airport:

Trip Planner

Search our weather history database for the weather conditions in past years. The results will help you decide how hot, cold, wet, or windy it might be!

Date:

Astronomy

Feb. 02, 2014 Rise Set
Actual Time 7:29 AM EST 5:32 PM EST
Civil Twilight 6:59 AM EST 6:02 PM EST
Nautical Twilight 6:26 AM EST 6:35 PM EST
Astronomical Twilight 5:53 AM EST 7:08 PM EST
Moon 8:50 AM EST (2/2) 9:19 PM EST (2/2)
Length of Visible Light 11h 03m
Length of Day
10h 03m
Waxing Crescent, 11% of the Moon is Illuminated
Feb 2
Waxing Crescent
Feb 6
First Quarter
Feb 14
Full
Feb 22
Last Quarter
Mar 1
New

Hourly Weather History & Observations

Time (EST) Temp. Windchill Dew Point Humidity Pressure Visibility Wind Dir Wind Speed Gust Speed Precip Events Conditions
12:15 AM 39.2 °F 35.0 °F 37.4 °F 93% 29.83 in 5.0 mi SW 5.8 mph - N/A   Overcast
12:35 AM 37.4 °F 31.4 °F 37.4 °F 100% 29.84 in 5.0 mi WSW 8.1 mph - N/A   Overcast
12:55 AM 37.4 °F 32.1 °F 37.4 °F 100% 29.83 in 5.0 mi WSW 6.9 mph - N/A   Overcast
1:15 AM 37.4 °F 31.4 °F 37.4 °F 100% 29.84 in 4.0 mi WNW 8.1 mph - 0.01 in   Overcast
1:35 AM 35.6 °F 27.5 °F 35.6 °F 100% 29.84 in 10.0 mi WNW 11.5 mph - 0.01 in   Overcast
1:55 AM 35.6 °F 28.0 °F 33.8 °F 93% 29.85 in 10.0 mi West 10.4 mph - 0.01 in   Overcast
2:15 AM 35.6 °F 28.0 °F 33.8 °F 93% 29.86 in 10.0 mi West 10.4 mph - N/A   Overcast
2:35 AM 33.8 °F 25.3 °F 32.0 °F 93% 29.86 in 10.0 mi West 11.5 mph - 0.01 in   Overcast
2:55 AM 33.8 °F 26.4 °F 32.0 °F 93% 29.87 in 10.0 mi West 9.2 mph - 0.01 in   Overcast
3:15 AM 33.8 °F 27.7 °F 30.2 °F 87% 29.87 in 5.0 mi West 6.9 mph - N/A   Overcast
3:35 AM 33.8 °F 27.0 °F 30.2 °F 87% 29.87 in 5.0 mi WNW 8.1 mph - N/A   Overcast
3:55 AM 32.0 °F 24.8 °F 30.2 °F 93% 29.88 in 5.0 mi WNW 8.1 mph - 0.01 in   Overcast
4:15 AM 32.0 °F 25.6 °F 30.2 °F 93% 29.87 in 5.0 mi WNW 6.9 mph - N/A   Overcast
4:35 AM 30.2 °F 23.4 °F 30.2 °F 100% 29.88 in 5.0 mi WNW 6.9 mph - N/A   Overcast
4:55 AM 30.2 °F 24.3 °F 28.4 °F 93% 29.90 in 4.0 mi West 5.8 mph - N/A   Overcast
5:15 AM 30.2 °F 23.4 °F 28.4 °F 93% 29.89 in 5.0 mi NW 6.9 mph - N/A   Overcast
5:35 AM 30.2 °F 25.4 °F 28.4 °F 93% 29.90 in 3.0 mi NW 4.6 mph - 0.01 in   Overcast
5:55 AM 30.2 °F 24.3 °F 28.4 °F 93% 29.89 in 5.0 mi NW 5.8 mph - 0.01 in   Overcast
6:15 AM 30.2 °F 23.4 °F 28.4 °F 93% 29.90 in 5.0 mi NNW 6.9 mph - N/A   Overcast
6:35 AM 30.2 °F 22.6 °F 28.4 °F 93% 29.91 in 4.0 mi WNW 8.1 mph - N/A   Overcast
6:55 AM 30.2 °F 23.4 °F 28.4 °F 93% 29.91 in 3.0 mi NW 6.9 mph - N/A   Overcast
7:15 AM 30.2 °F 24.3 °F 28.4 °F 93% 29.93 in 4.0 mi NW 5.8 mph - N/A   Overcast
7:35 AM 30.2 °F 24.3 °F 28.4 °F 93% 29.93 in 1.8 mi NW 5.8 mph - N/A   Overcast
7:55 AM 30.2 °F 24.3 °F 28.4 °F 93% 29.93 in 1.8 mi NW 5.8 mph - N/A   Overcast
8:15 AM 28.4 °F 21.2 °F 26.6 °F 93% 29.95 in 2.0 mi NNW 6.9 mph - 0.01 in   Overcast
8:35 AM 28.4 °F 23.3 °F 26.6 °F 93% 29.95 in 1.5 mi NNW 4.6 mph - 0.01 in   Overcast
8:55 AM 28.4 °F 24.6 °F 26.6 °F 93% 29.96 in 1.8 mi NW 3.5 mph - 0.01 in   Overcast
9:15 AM 28.4 °F 21.2 °F 26.6 °F 93% 29.96 in 3.0 mi NW 6.9 mph - N/A   Overcast
9:35 AM 28.4 °F 21.2 °F 26.6 °F 93% 29.97 in 5.0 mi NW 6.9 mph - N/A   Overcast
9:55 AM 28.4 °F 21.2 °F 26.6 °F 93% 29.97 in 4.0 mi WNW 6.9 mph - N/A   Overcast
10:15 AM 28.4 °F 22.2 °F 26.6 °F 93% 29.97 in 6.0 mi WNW 5.8 mph - N/A   Overcast
10:35 AM 28.4 °F 22.2 °F 26.6 °F 93% 29.97 in 5.0 mi NW 5.8 mph - N/A   Overcast
10:55 AM 28.4 °F 21.2 °F 24.8 °F 86% 29.99 in 4.0 mi NW 6.9 mph - N/A   Overcast
11:15 AM 28.4 °F 21.2 °F 26.6 °F 93% 29.97 in 4.0 mi NW 6.9 mph - N/A   Overcast
11:35 AM 28.4 °F 19.7 °F 24.8 °F 86% 29.99 in 4.0 mi WNW 9.2 mph - N/A   Overcast
11:55 AM 26.6 °F 19.1 °F 24.8 °F 93% 29.98 in 4.0 mi NW 6.9 mph - N/A   Overcast
12:15 PM 26.6 °F 20.0 °F 24.8 °F 93% 29.98 in 4.0 mi WNW 5.8 mph - N/A   Overcast
12:35 PM 26.6 °F 18.2 °F 24.8 °F 93% 29.97 in 4.0 mi WNW 8.1 mph - N/A   Overcast
12:55 PM 26.6 °F 20.0 °F 24.8 °F 93% 29.99 in 3.0 mi WNW 5.8 mph - N/A   Overcast
1:15 PM 26.6 °F 16.8 °F 24.8 °F 93% 29.99 in 3.0 mi WNW 10.4 mph - N/A   Overcast
1:35 PM 26.6 °F 18.2 °F 26.6 °F 100% 29.98 in 1.8 mi NW 8.1 mph - N/A   Overcast
1:55 PM 26.6 °F 17.5 °F 23.0 °F 86% 29.99 in 4.0 mi WNW 9.2 mph - N/A   Overcast
2:15 PM 26.6 °F 18.2 °F 23.0 °F 86% 29.99 in 4.0 mi WNW 8.1 mph - N/A   Overcast
2:35 PM 24.8 °F 16.9 °F 24.8 °F 100% 29.99 in 3.0 mi NW 6.9 mph - N/A   Overcast
2:55 PM 26.6 °F 17.5 °F 24.8 °F 93% 30.00 in 5.0 mi WNW 9.2 mph - N/A   Overcast
3:15 PM 24.8 °F 16.9 °F 23.0 °F 93% 30.00 in 3.0 mi WNW 6.9 mph - N/A   Overcast
3:35 PM 24.8 °F 16.9 °F 24.8 °F 100% 30.01 in 2.5 mi WNW 6.9 mph - N/A   Overcast
3:55 PM 24.8 °F 14.6 °F 24.8 °F 100% 30.02 in 2.5 mi NW 10.4 mph - N/A   Overcast
4:15 PM 24.8 °F 15.3 °F 23.0 °F 93% 30.03 in 7.0 mi West 9.2 mph - N/A   Overcast
4:35 PM 24.8 °F 15.3 °F 21.2 °F 86% 30.04 in 10.0 mi WNW 9.2 mph - N/A   Overcast
4:55 PM 24.8 °F 16.9 °F 21.2 °F 86% 30.06 in 10.0 mi WNW 6.9 mph - N/A   Overcast
5:15 PM 24.8 °F 16.9 °F 19.4 °F 80% 30.07 in 10.0 mi West 6.9 mph - N/A   Overcast
5:35 PM 24.8 °F 16.9 °F 19.4 °F 80% 30.09 in 10.0 mi West 6.9 mph - N/A   Overcast
5:55 PM 23.0 °F 13.9 °F 19.4 °F 86% 30.08 in 10.0 mi WNW 8.1 mph - N/A   Overcast
6:15 PM 23.0 °F 13.9 °F 19.4 °F 86% 30.10 in 10.0 mi WNW 8.1 mph - N/A   Overcast
6:35 PM 23.0 °F 13.1 °F 19.4 °F 86% 30.10 in 10.0 mi West 9.2 mph - N/A   Overcast
6:55 PM 21.2 °F 10.9 °F 19.4 °F 93% 30.10 in 10.0 mi NW 9.2 mph - N/A   Overcast
7:15 PM 21.2 °F 10.1 °F 19.4 °F 93% 30.10 in 10.0 mi WNW 10.4 mph - N/A   Overcast
7:35 PM 21.2 °F 12.6 °F 19.4 °F 93% 30.10 in 10.0 mi WNW 6.9 mph - N/A   Overcast
7:55 PM 21.2 °F 13.6 °F 19.4 °F 93% 30.12 in 10.0 mi West 5.8 mph - N/A   Overcast
8:15 PM 21.2 °F 12.6 °F 19.4 °F 93% 30.11 in 10.0 mi West 6.9 mph - N/A   Overcast
8:35 PM 21.2 °F 12.6 °F 19.4 °F 93% 30.11 in 10.0 mi West 6.9 mph - N/A   Overcast
8:55 PM 21.2 °F 12.6 °F 19.4 °F 93% 30.11 in 7.0 mi NW 6.9 mph - N/A   Overcast
9:15 PM 21.2 °F 11.7 °F 19.4 °F 93% 30.11 in 6.0 mi NW 8.1 mph - N/A   Overcast
9:35 PM 21.2 °F 11.7 °F 17.6 °F 86% 30.14 in 5.0 mi WNW 8.1 mph - N/A   Overcast
9:55 PM 21.2 °F 10.9 °F 19.4 °F 93% 30.13 in 6.0 mi NNW 9.2 mph - N/A   Overcast
10:15 PM 19.4 °F 10.4 °F 17.6 °F 93% 30.13 in 9.0 mi NW 6.9 mph - N/A   Overcast
10:35 PM 19.4 °F 11.5 °F 17.6 °F 93% 30.13 in 6.0 mi NNW 5.8 mph - N/A   Overcast
10:55 PM 19.4 °F 12.8 °F 17.6 °F 93% 30.14 in 8.0 mi NW 4.6 mph - N/A   Overcast
11:15 PM 19.4 °F 10.4 °F 15.8 °F 86% 30.12 in 8.0 mi NNW 6.9 mph - N/A   Overcast
11:35 PM 19.4 °F 10.4 °F 15.8 °F 86% 30.12 in 9.0 mi NNW 6.9 mph - N/A   Overcast
11:55 PM 19.4 °F 10.4 °F 17.6 °F 93% 30.12 in 10.0 mi NW 6.9 mph - N/A   Overcast